This is the latest recevied weather packets stored in our database for station/object SQ9IAB-13. If no packets are shown the sender has not sent any weather packets the latest 1 day(s).
| Time | Temp. | Humidity | Pressure | Rain* | Wind** | Luminosity | Snow |
|---|---|---|---|---|---|---|---|
| 1778072905 | 27.22° C | 32% | 995.7 hPa | 0 mm | - | - | - |
| 1778072846 | 27.22° C | 32% | 995.6 hPa | 0 mm | - | - | - |
| 1778072605 | 27.22° C | 31% | 995.4 hPa | 0 mm | - | - | - |
| 1778072547 | 27.22° C | 31% | 995.7 hPa | 0 mm | - | - | - |
| 1778072486 | 27.22° C | 31% | 995.4 hPa | 0 mm | - | - | - |
| 1778072426 | 27.22° C | 31% | 995.8 hPa | 0 mm | - | - | - |
| 1778072186 | 27.22° C | 31% | 995.4 hPa | 0 mm | - | - | - |
| 1778072005 | 27.78° C | 29% | 995.7 hPa | 0 mm | - | - | - |
| 1778071947 | 27.78° C | 29% | 995.6 hPa | 0 mm | - | - | - |
| 1778071885 | 27.22° C | 31% | 995.5 hPa | 0 mm | - | - | - |
| 1778071766 | 27.22° C | 31% | 995.8 hPa | 0 mm | - | - | - |
| 1778071705 | 27.22° C | 31% | 995.8 hPa | 0 mm | - | - | - |
| 1778071645 | 27.22° C | 31% | 995.6 hPa | 0 mm | - | - | - |
| 1778071527 | 27.22° C | 32% | 995.6 hPa | 0 mm | - | - | - |
| 1778071346 | 27.22° C | 31% | 995.6 hPa | 0 mm | - | - | - |
| 1778071226 | 27.22° C | 31% | 995.6 hPa | 0 mm | - | - | - |
| 1778071165 | 27.22° C | 31% | 995.6 hPa | 0 mm | - | - | - |
| 1778071105 | 27.22° C | 31% | 995.7 hPa | 0 mm | - | - | - |
| 1778070986 | 27.78° C | 28% | 995.7 hPa | 0 mm | - | - | - |
| 1778070926 | 27.78° C | 28% | 995.7 hPa | 0 mm | - | - | - |
| 1778070866 | 27.78° C | 30% | 995.7 hPa | 0 mm | - | - | - |
| 1778070806 | 27.78° C | 30% | 995.7 hPa | 0 mm | - | - | - |
| 1778070566 | 27.22° C | 31% | 995.9 hPa | 0 mm | - | - | - |
| 1778070446 | 27.22° C | 30% | 995.9 hPa | 0 mm | - | - | - |
| 1778070385 | 27.22° C | 30% | 995.8 hPa | 0 mm | - | - | - |
* Rain latest hour (hover to see other rain measurements)
** Current wind speed in m/s (hover to see current wind gust speed)